Погода в Коркатове

Россия / Республика Марий Эл     56°20′53″N   48°45′26″E
темп.,
°C
ветер,
м/с
пор.,
м/с
влажн.,
%
обл.,
%
осадки,
мм/ч
давл.,
гПа
погр.,
м
20 апреля, вт
вт2000:000в413510 0.0 1031372
03:00−1в412540 0.0 1032315
06:00+1в410520 0.0 1032322
09:00+6вюв58380 0.0 10321020
12:00+9вюв68300 0.0 10311450
15:00+9вюв69270 0.0 10301525
18:00+7юв493713 0.0 1029426
21:00+4вюв5144879 0.0 1028370
21 апреля, ср
ср2100:00+3вюв61548100 0.0 1026569
03:00+3юв61649100 0.0 1026630
06:00+3юв81750100 0.0 1024759
09:00+6юв91644100 0.0 10231031
12:00+3ююв81771100 1.2 1022946
15:00+3ююв91775100 3.1 1021977
18:00+2ююв81697100 1.9 1021837
21:00+1ююв81797100 3.6 1020702
22 апреля, чт
чт2200:00+2ююв71496100 0.7 1020694
03:00+2ююв61397100 0.7 1021483
06:00+3ююв51297100 0.3 1021478
09:00+4ююв51096100 1.5 1022420
12:00+7ю6987100 0.0 1022648
15:00+8ю598468 0.0 1022736
18:00+8ююв51188100 0.1 1022539
21:00+7ююв61296100 2.2 1023501
23 апреля, пт
пт2300:00+6ю3998100 0.8 1022504
03:00+6ю379776 0.8 1023296
06:00+5ю249643 0.0 1024167
09:00+10ю34755 0.0 1025594
12:00+13ююз335868 0.1 10241452
15:00+13ююв235850 0.3 10231044
18:00+11юв37735 0.3 1023254
21:00+7юв388619 0.3 1023162
24 апреля, сб
сб2400:00+6юв2590100 0.0 102295
03:00+5вюв3893100 0.0 1021177
06:00+6вюв3890100 0.0 1021264
09:00+10вюв4569100 0.0 1019697
12:00+11в4557100 0.0 10171218
15:00+12в4452100 0.0 10161536
18:00+9в4772100 0.0 1015499
21:00+6в3785100 0.0 1014163